Regional Weather Roundup
Issued by NWS Mobile, AL

Home | Current Version | Previous Version | Text Only | Print | Product List | Glossary On
Versions: 1 2 3 4 5 6 7 8 9 10 11 12 13 14 15 16 17 18 19 20 21 22 23 24 25 26 27 28 29 30 31 32 33 34 35 36 37 38 39 40 41 42 43 44 45 46 47 48 49 50
000
ASUS44 KMOB 231310
RWRMOB
REGIONAL WEATHER ROUNDUP
NATIONAL WEATHER SERVICE MOBILE AL
800 AM CDT TUE SEP 23 2014

NOTE: "FAIR" INDICATES FEW OR NO CLOUDS BELOW 12,000 FEET WITH NO
      SIGNIFICANT WEATHER AND/OR OBSTRUCTIONS TO VISIBILITY.

  * THESE STATIONS ARE PART OF THE UNIVERSITY OF SOUTH ALABAMA
    MESONET AND ARE NOT UNDER NWS OR FAA QUALITY CONTROL.

ALZ061>064-231400-
COASTAL ALABAMA

CITY           SKY/WX    TMP DP  RH WIND       PRES   REMARKS
MOBILE REG APT SUNNY     62  55  77 NE8       30.11R
BROOKLEY FIELD SUNNY     66  57  72 N9        30.11R
USA CAMPUS*      N/A     64  55  72 CALM      30.11R
DOG RIVER*     NOT AVBL


CITY           SKY/WX    TMP DP  RH WIND       PRES   REMARKS
MOUNT VERNON*    N/A     57  54  88 CALM      30.12R
SARALAND*      NOT AVBL
BAY MINETTE*   NOT AVBL
LOXLEY*          N/A     59  54  82 N7        30.09S
ROBERTSDALE*     N/A     59  54  82 CALM      30.09R
FAIRHOPE*        N/A     63  55  77 E7        30.09R
ELBERTA*         N/A     61  46  59 N7        30.08R
FOLEY*         NOT AVBL
GRAND BAY*       N/A     63  55  77 NE3       30.09R
DAUPHIN ISLND* NOT AVBL
BON SCOUR NWR* NOT AVBL
GULF SHORES    SUNNY     62  55  79 N6        30.08R

$$

ALZ051>060-231400-
INTERIOR SOUTHWEST AND SOUTH CENTRAL ALABAMA

CITY           SKY/WX    TMP DP  RH WIND       PRES   REMARKS
GREENVILLE     CLOUDY    60  57  89 NE8       30.12R
EVERGREEN      SUNNY     61  56  83 NE8       30.11R
CASTLEBERRY*   NOT AVBL
ATMORE*          N/A     61  55  82 N3        30.12R
DIXIE*         NOT AVBL
ANDALUSIA/OPP  CLOUDY    66  61  82 E6        30.11R HAZE
ANDALUSIA*     NOT AVBL
FLORALA APT    CLOUDY    63  62  97 NE7       30.12R FOG
FLORALA*       NOT AVBL

$$

FLZ001>006-231400-
WESTERN FLORIDA PANHANDLE

CITY           SKY/WX    TMP DP  RH WIND       PRES   REMARKS
PENSACOLA      SUNNY     63  57  81 N10       30.08R
NAS PENSACOLA  SUNNY     66  58  75 N9        30.07R
MILTON         SUNNY     61  55  81 NE7       30.09R
WHTNG S FIELD  SUNNY     63  57  81 NE6       30.09R


CITY           SKY/WX    TMP DP  RH WIND       PRES   REMARKS
WALNUT HILL*   NOT AVBL
JAY*           NOT AVBL
DUKE FIELD     CLOUDY    61  61 100 N6        30.09R FOG
CRESTVIEW      FOG       61  61 100 NE6       30.11R VSB 3/4
VALPARAISO     CLOUDY    62  60  95 N8        30.08R FOG
DESTIN         CLOUDY    65  63  93 NE10      30.08R

$$

MSZ076-079-231400-
INTERIOR SOUTHEAST MISSISSIPPI

CITY           SKY/WX    TMP DP  RH WIND       PRES   REMARKS
LEAKESVILLE*   NOT AVBL
AGRICOLA*      NOT AVBL

$$

MARINE OBSERVATIONS

STATION/POSITION TIME  TEMP    WIND        PRES    WAVE
                       AIR SEA DIR/SP/G            HT/PER
                 (UTC) (F)     (DEG/KT/KT) (MB)    (FT/S)
PASCAGOULA       1300   65      20/ 11/ 14 1018.7R
PETIT BOIS ISLND 1300   70      30/ 17/ 22 1018.7R
GRAND BAY        1100   62      10/  7     1019.0R
KATRINA CUT      1200   69      30/ 14     1019.0R
CEDAR POINT      1200   71      40/ 15     1018.3R
E DAUPHIN ISLAND 1154   71      50/ 20/ 22 1018.2R
MIDDLE BAY LIGHT 1200   69      40/ 17     1018.3R
USCG MOBILE BAY  1300      83              1018.2S
STATE DOCKS      1300   65 84              1019.1R
MEAHER PARK      1200   62     360/  5     1019.3R
WEEKS BAY        1200   60                   N/A
FORT MORGAN      1300   69      80/ 16/ 19 1017.9S
12 S ORANGE BCH  1300   72 84   40/ 16/ 19 1017.9R   3/ 5
PENSACOLA BAY    1300   66 84   20/  6/  9 1018.6R
64 S DAUPHIN ISL 1220   78 83   60/ 16/ 19 1017.5R   5/ 6
67 S FORT MORGAN 1200   78                 1016.6R

$$

SELECTED LOCATIONS ACROSS THE REGION

CITY           SKY/WX    TMP DP  RH WIND       PRES   REMARKS
NEW ORLEANS    MOSUNNY   72  57  59 NE13G23   30.08R
GULFPORT       SUNNY     64  54  69 N7        30.09S
PASCAGOULA AP  SUNNY     61  55  81 NE7       30.10R
PASCAGOULA*    NOT AVBL
HATTIESBURG    SUNNY     60  54  80 CALM      30.14R
LAUREL         SUNNY     61  50  67 N6        30.15R
MERIDIAN       SUNNY     58  52  80 N5        30.16R
JACKSON        SUNNY     60  51  72 NE5       30.16R
MONTGOMERY     SUNNY     63  55  75 NE6       30.15R
TROY           CLOUDY    63  60  90 NE8       30.13R
KINSTON*       NOT AVBL
GENEVA*        NOT AVBL
ASHFORD*       NOT AVBL
DOTHAN         CLOUDY    65  63  93 VRB7      30.15R
PANAMA CITY    CLOUDY    69  65  86 N8        30.06R

$$



USA.gov is the U.S. government's official web portal to all federal, state and local government web resources and services.